Regional Weather Roundup
Issued by NWS

Home | Current Version | Previous Version | Graphics & Text | Print | Product List | Glossary On
Versions: 1 2 3 4 5 6 7 8 9 10 11 12 13 14 15 16 17 18 19 20 21 22 23 24 25 26 27 28 29 30 31 32 33 34 35 36 37 38 39 40 41 42 43 44 45 46 47 48 49 50
646
ASUS43 KDMX 020803
RWRIA

WEATHER ROUNDUP FOR IOWA
NATIONAL WEATHER SERVICE DES MOINES IA
300 AM CDT MON MAY 02 2016

NOTE: "FAIR" INDICATES FEW OR NO CLOUDS BELOW 12,000 FEET WITH NO
SIGNIFICANT WEATHER AND/OR OBSTRUCTIONS TO VISIBILITY.

* - THESE STATIONS ARE NOT NWS STATIONS...THUS NOT UNDER NWS
QUALITY CONTROL.  THEY ALSO DO NOT REPORT WEATHER SUCH
AS PRECIPITATION OR FOG.

IAZ001>003-012>014-020>022-031>034-043>046-020900-
   NORTHWEST IOWA

CITY           SKY/WX    TMP DP  RH WIND       PRES   REMARKS
CARROLL *      PTCLDY    43  41  93 CALM      30.13S
CHEROKEE *     CLEAR     36  36 100 CALM      30.14S
DENISON *      CLOUDY    45 N/A N/A CALM      30.12S
LE MARS *      CLEAR     37  37 100 CALM      30.16S FOG
ORANGE CITY *  CLEAR     39  36  87 NW3       30.14F
SHELDON *      CLEAR     37  36  93 NW3       30.13S
SIOUX CITY     CLEAR     39  35  86 NW7       30.15F WCI  34
SPENCER        CLEAR     36  34  92 NW6       30.13F WCI  31
STORM LAKE *   CLEAR     43  37  81 CALM      30.14S
$$

IAZ055>058-069>071-079>083-090>094-020900-
   SOUTHWEST IOWA

CITY           SKY/WX    TMP DP  RH WIND       PRES   REMARKS
ATLANTIC *     CLEAR     43  43 100 CALM      30.13S
AUDUBON *      CLEAR     39  36  87 CALM      30.13F
CLARINDA *       N/A    N/A N/A N/A MISG        N/A
COUNCIL BLFS * CLOUDY    48  46  93 NW6       30.13F
CRESTON *      CLOUDY    45  45 100 NW5       30.13F
HARLAN  *      CLEAR     46  43  87 N6        30.16F
LAMONI         CLOUDY    47  45  93 NW6       30.11S
RED OAK *      CLOUDY    70  68  94 SE5       30.13F
SHENANDOAH *   CLOUDY    46  46 100 SW5       30.14F
$$

IAZ047>049-059>061-072>074-084-020900-
   CENTRAL IOWA

CITY           SKY/WX    TMP DP  RH WIND       PRES   REMARKS
AMES           CLEAR     41  40  96 NW3       30.11F FOG
ANKENY *       MOCLDY    46  45  93 CALM      30.11S
BOONE *        CLEAR     43  43 100 NW5       30.11S
CHARITON *     CLOUDY    46  46 100 NW6       30.09F
DES MOINES     CLOUDY    47  43  86 N5        30.11F
GRINNELL*      PTCLDY    43  41  93 NW5       30.10S
KNOXVILLE *    MOCLDY    46  45  93 N7        30.09S
MARSHALLTOWN   CLEAR     39  38  96 NW7       30.09F FOG     WCI  34
NEWTON *       CLEAR     43  43 100 NW6       30.10S
PELLA *        PTCLDY    45  44  96 N6        30.11S
$$

IAZ004>006-015-016-023>025-035-036-020900-
   NORTH CENTRAL IOWA

CITY           SKY/WX    TMP DP  RH WIND       PRES   REMARKS
ALGONA *       CLEAR     45  41  87 W5        30.12S
CLARION *      CLEAR     43  43 100 N5        30.11F FOG
ESTHERVILLE    CLEAR     41  37  86 NW10      30.12F
FORT DODGE *   CLOUDY    39  36  87 CALM      30.12S VSB 1/2
MASON CITY     MOCLDY    43  41  93 CALM      30.12F
WEBSTER CITY * CLEAR     41  41 100 NW7       30.10S
IOWA FALLS *   MOCLDY    41  41 100 NW3       30.11F FOG
$$

IAZ007>011-017>019-026>030-037>042-050>054-066-020900-
   NORTHEAST IOWA

CITY           SKY/WX    TMP DP  RH WIND       PRES   REMARKS
CEDAR RAPIDS   CLEAR     42  42 100 N8        30.07S
CHARLES CITY * CLOUDY    43  43 100 NW3       30.12S
CLINTON *      CLOUDY    47  46  97 N8        30.07R
DECORAH *      CLOUDY    41  41 100 CALM      30.10S FOG
DUBUQUE        CLOUDY    45  42  89 NW6       30.09R
MONTICELLO *   CLEAR     43  41  93 N6        30.08F
OELWEIN *      CLEAR     41  41 100 N6        30.10F
$$

IAZ064-065-067-068-078-020900-
   EAST CENTRAL IOWA

CITY           SKY/WX    TMP DP  RH WIND       PRES   REMARKS
DAVENPORT      CLOUDY    48  45  89 N7        30.07R
IOWA CITY      CLEAR     45  43  93 N5        30.09S
MT. PLEASANT * CLOUDY    50  50 100 NW6       30.07F
MUSCATINE *    CLOUDY    48  46  93 NW3       30.08S
QUAD CITIES    CLOUDY    50  46  86 CALM      30.06R
$$

IAZ062-063-075>077-085>089-095>099-020900-
   SOUTHEAST IOWA

CITY           SKY/WX    TMP DP  RH WIND       PRES   REMARKS
BURLINGTON     CLOUDY    49  48  97 N9        30.05F
FAIRFIELD *    CLOUDY    48  46  93 NW7       30.08S
FORT MADISON * CLOUDY    48  48 100 NW6       30.07S
KEOKUK *       CLOUDY    50  48  93 CALM      30.06S FOG
OSKALOOSA *    CLOUDY    46  45  93 NW3       30.09F
OTTUMWA        CLOUDY    47  46  97 NW6       30.08F
WASHINGTON *   CLOUDY    46  46 100 NW5       30.09S
$$

ABBREVIATIONS USED IN REMARKS
   TC - TEMPERATURES IN CELSIUS
  WCI - WIND CHILL INDEX
   HX - HEAT INDEX
  VSB - VISIBILITY
$$





USA.gov is the U.S. government's official web portal to all federal, state and local government web resources and services.